Regional Weather Roundup
Issued by NWS

Home | Current Version | Previous Version | Graphics & Text | Print | Product List | Glossary Off
Versions: 1 2 3 4 5 6 7 8 9 10 11 12 13 14 15 16 17 18 19 20 21 22 23 24 25 26 27 28 29 30 31 32 33 34 35 36 37 38 39 40 41 42 43 44 45 46 47 48 49 50

056
ASUS43 KLSX 291557
RWRMO

WEATHER SUMMARY FOR MISSOURI
NATIONAL WEATHER SERVICE SPRINGFIELD MO
1100 AM CDT SAT APR 29 2017

NOTE: "FAIR" INDICATES FEW OR NO CLOUDS BELOW 12,000 FEET WITH NO
       SIGNIFICANT WEATHER AND/OR OBSTRUCTIONS TO VISIBILITY.
       CURRENT SKY AND/OR WEATHER CONDITIONS ARE NOT AVAILABLE FOR
       CHILLICOTHE AND FARMINGTON.

MOZ001>031-035>038-043-044-053-054-291700-
...NORTHERN AND WESTERN MISSOURI...

CITY           SKY/WX    TMP DP  RH WIND       PRES   REMARKS
KANSAS CTY INT HVY RAIN  46  45  96 N13       29.94S FOG
LEE`S SUMMIT   RAIN      48  47  96 NE15G25   29.89R FOG
ST JOSEPH      HVY RAIN  45  45 100 N14       29.98R FOG
CHILLICOTHE      N/A     48  47  96 NE12G21   29.96R

$$
MOZ066>068-077>081-088>096-101>105-291700-
...SOUTHWEST MISSOURI...

CITY           SKY/WX    TMP DP  RH WIND       PRES   REMARKS
SPRINGFIELD    LGT RAIN  62  60  93 NE15      29.68F
JOPLIN         TSTM      53  53 100 N17G35    29.78R VSB 3/4
BRANSON        FOG       64  64 100 SE14      29.70F VSB 1/2

$$
MOZ032>034-039>042-045>050-055>058-069>072-291700-
...CENTRAL MISSOURI...

CITY           SKY/WX    TMP DP  RH WIND       PRES   REMARKS
COLUMBIA       NOT AVBL
JEFFERSON CITY TSTM      61  57  87 VRB6G18   29.84F FOG
ROLLA          CLOUDY    61  32  33 E21G31    29.80F
SEDALIA        TSTM      54  54 100 NE15      29.84R FOG
WHITEMAN AFB   TSTM      50  50 100 NE16      29.82R VSB 1

$$
MOZ051-052-059>065-291700-
...EAST CENTRAL MISSOURI...

CITY           SKY/WX    TMP DP  RH WIND       PRES   REMARKS
ST LOUIS INTL  TSTM      60  57  89 NE9       29.94S VSB 1
SPIRIT OF STL  TSTM      57  57 100 E12G26    29.86F FOG

$$
MOZ072>076-082>087-097>100-106>115-291700-
...SOUTH CENTRAL AND SOUTHEAST MISSOURI...

CITY           SKY/WX    TMP DP  RH WIND       PRES   REMARKS
CAPE GIRARDEAU CLOUDY    73  67  81 SE13      29.91F
FARMINGTON     CLOUDY    66  63  88 SE14G23   29.89F
POPLAR BLUFF   CLOUDY    77  70  79 S20G28    29.86F
WEST PLAINS    CLOUDY    65  64  97 E7        29.79F

$$



USA.gov is the U.S. government's official web portal to all federal, state and local government web resources and services.